Probability
0 0 0 0 0 0 0 0 0 0 0 6 3 10 13 16 23 29 42 39 42 45 61 52 52 55 55 52 52 45 45 48 48 48 52 48 48 45 42 52 45 45 39 39
0 0 0 0 0 0 0 0 0 0 3 6 3 10 16 19 19 29 35 42 42 52 55 58 55 55 55 52 48 48 45 52 48 48 48 45 45 48 48 45 48 45 39 39
0 0 0 0 0 0 0 0 0 3 0 3 6 13 16 13 23 29 29 39 42 52 55 58 58 58 58 52 48 48 52 52 48 48 48 48 48 45 45 45 45 42 39 32
0 0 0 0 0 0 0 0 3 3 0 3 6 26 26 19 23 23 26 29 39 48 55 61 58 55 55 48 52 48 48 55 48 48 48 48 45 45 45 45 48 45 39 32
0 0 0 0 0 0 0 3 3 3 0 6 6 13 19 13 16 23 26 35 35 42 55 58 61 55 52 48 48 48 55 55 48 48 48 52 48 48 45 45 45 42 39 35
0 0 0 0 0 0 0 0 0 0 0 0 10 10 16 23 23 29 32 39 39 42 39 52 61 55 55 48 48 48 52 55 52 48 52 52 52 48 45 42 35 35 32 29
0 0 0 3 3 0 0 0 3 3 6 13 13 6 16 29 32 35 32 42 45 45 35 48 55 58 58 52 52 52 55 55 48 52 52 52 45 42 39 35 35 35 35 26
0 0 0 3 3 3 3 6 6 6 16 23 19 29 23 29 32 35 35 35 45 35 35 42 55 52 55 55 45 48 52 48 45 45 42 45 42 42 39 35 32 29 29 19
3 3 3 6 6 10 6 19 19 19 19 23 29 29 29 32 35 39 39 39 32 39 39 45 45 45 45 52 52 52 52 48 45 45 45 39 39 39 32 32 26 16 13 13
3 3 3 6 6 6 13 19 19 19 23 23 26 32 35 32 35 39 39 35 29 29 32 42 42 45 48 55 52 52 48 45 45 39 35 39 39 35 29 29 26 13 13 13
0 3 6 3 10 13 19 16 16 19 19 26 29 35 32 35 35 32 35 29 32 32 32 35 42 42 35 45 52 45 45 45 42 35 32 29 23 23 16 16 10 13 10 10
3 10 10 13 6 6 13 16 16 23 19 19 26 29 32 32 29 26 29 32 35 29 26 26 29 35 29 35 39 42 42 42 29 32 35 19 10 3 3 3 3 3 3 3
0 6 6 6 6 6 16 16 16 19 16 23 23 26 32 32 26 29 29 29 23 23 26 32 32 32 32 39 39 42 39 32 29 32 29 23 16 10 3 3 3 0 0 0
3 6 13 10 13 13 16 16 16 16 16 16 19 26 26 26 32 26 23 23 19 19 19 26 26 26 26 32 39 39 32 19 23 26 19 16 16 16 10 6 6 3 0 0
3 10 13 13 13 16 16 16 16 16 16 19 19 16 19 23 23 26 19 16 16 16 16 16 23 26 26 26 29 29 23 23 19 16 16 13 13 13 6 6 6 3 0 0
6 10 10 13 16 16 16 16 16 16 16 13 16 16 19 23 16 16 13 13 16 13 13 19 19 19 23 23 26 29 26 19 19 19 16 13 13 10 10 3 3 3 3 0
6 6 10 16 16 16 16 16 16 16 13 13 16 13 13 16 19 13 10 10 13 19 19 19 16 19 19 23 19 19 16 19 6 19 19 19 13 10 6 3 3 3 3 0
6 6 6 13 16 16 16 16 16 16 10 10 10 10 13 16 23 19 13 16 16 16 16 16 13 13 16 16 16 10 10 16 16 16 16 19 16 13 3 3 3 3 3 0
3 6 6 13 16 16 16 16 13 13 10 10 10 10 10 13 19 16 19 19 19 16 13 6 6 6 16 16 10 13 10 10 13 13 13 0 0 0 3 3 3 3 0 0
3 3 10 10 10 16 16 13 13 10 10 6 6 6 6 6 19 19 16 13 13 6 6 6 6 6 6 13 6 10 6 6 3 3 6 0 0 0 0 0 0 0 0 0
6 6 10 10 10 16 6 6 6 6 6 6 6 6 10 10 10 10 10 10 10 10 6 3 6 6 6 3 0 3 6 3 3 3 0 0 0 0 0 0 0 0 0 0
6 10 10 6 6 13 6 6 6 6 6 6 6 10 13 13 6 10 13 10 10 3 3 3 6 3 3 3 3 3 3 0 0 0 0 0 0 0 0 0 0 0 0 0
10 6 6 6 6 10 6 6 6 6 6 6 13 13 13 13 6 3 0 3 6 0 3 3 3 0 0 0 0 0 0 0 0 0 0 0 0 0 0 0 0 0 0 0
6 6 3 6 6 6 6 6 6 6 10 10 10 10 10 3 3 0 0 0 0 0 6 3 0 0 0 0 3 3 3 0 0 0 0 0 0 0 0 0 0 0 0 0
3 6 6 3 3 6 6 6 6 10 3 3 3 3 0 0 0 3 3 6 0 0 6 3 0 0 0 0 0 0 0 0 0 0 0 0 0 0 0 0 0 0 0 0
3 10 3 3 3 6 0 0 3 3 3 0 0 0 0 0 0 3 6 3 3 0 6 3 3 0 3 3 3 3 3 0 3 0 0 0 0 0 0 0 0 0 0 0
0 0 6 3 0 0 0 0 3 3 0 0 0 0 0 0 0 3 3 0 0 0 0 0 0 0 0 3 3 0 3 0 0 3 3 0 0 0 0 0 0 0 0 0
Height
5872 5874 5875 5876 5878 5879 5880 5881 5883 5884 5884 5884 5883 5883 5883 5883 5882 5882 5881 5881 5880 5879 5878 5877 5876 5875 5873 5872 5870 5870 5869 5868 5867 5865 5864 5863 5862 5861 5859 5858 5856 5855 5853 5852
5864 5866 5868 5869 5870 5872 5873 5874 5875 5876 5876 5877 5876 5876 5876 5876 5876 5875 5875 5874 5874 5873 5872 5871 5870 5869 5868 5866 5865 5864 5863 5862 5860 5859 5858 5857 5856 5854 5853 5852 5850 5848 5847 5845
5857 5858 5859 5860 5863 5865 5865 5866 5867 5868 5870 5869 5869 5869 5869 5869 5869 5868 5868 5868 5867 5866 5865 5864 5863 5862 5861 5860 5859 5857 5856 5855 5854 5852 5851 5850 5849 5848 5846 5845 5843 5841 5840 5838
5849 5850 5851 5855 5855 5856 5857 5858 5859 5860 5860 5861 5861 5861 5861 5861 5861 5861 5861 5860 5860 5859 5859 5857 5856 5855 5854 5853 5852 5851 5849 5848 5847 5846 5844 5843 5841 5840 5839 5837 5836 5834 5832 5830
5840 5841 5842 5845 5846 5847 5849 5849 5851 5851 5852 5853 5853 5853 5853 5853 5853 5853 5853 5853 5852 5851 5851 5850 5848 5847 5846 5845 5844 5843 5842 5841 5840 5838 5837 5835 5834 5832 5831 5829 5828 5826 5824 5821
5831 5833 5835 5838 5838 5838 5840 5840 5842 5842 5843 5844 5845 5845 5845 5845 5845 5845 5844 5844 5844 5843 5842 5841 5840 5839 5838 5837 5836 5835 5834 5833 5832 5830 5829 5827 5826 5824 5822 5820 5819 5816 5814 5812
5822 5823 5826 5828 5829 5830 5833 5833 5833 5834 5834 5835 5836 5837 5836 5836 5836 5835 5835 5835 5834 5834 5833 5833 5832 5830 5829 5828 5827 5826 5825 5824 5823 5822 5820 5818 5817 5815 5813 5811 5809 5807 5805 5802
5814 5816 5819 5819 5820 5822 5823 5823 5824 5824 5825 5826 5826 5826 5826 5826 5826 5826 5825 5825 5825 5825 5824 5823 5823 5822 5821 5820 5818 5816 5815 5814 5813 5812 5810 5809 5807 5805 5803 5801 5799 5797 5795 5793
5806 5809 5809 5809 5810 5812 5813 5814 5814 5815 5816 5816 5816 5816 5817 5817 5817 5816 5816 5816 5815 5815 5815 5814 5813 5812 5811 5810 5809 5807 5806 5805 5804 5802 5800 5799 5797 5795 5793 5791 5789 5787 5785 5783
5796 5798 5799 5800 5801 5802 5803 5804 5805 5805 5806 5806 5807 5807 5807 5807 5807 5807 5806 5806 5806 5805 5805 5805 5804 5803 5802 5801 5799 5798 5797 5795 5794 5793 5791 5789 5788 5786 5783 5781 5778 5776 5775 5773
5787 5789 5791 5792 5793 5793 5794 5794 5795 5795 5796 5797 5797 5797 5797 5797 5797 5797 5797 5796 5796 5796 5795 5794 5794 5793 5792 5790 5789 5788 5786 5785 5784 5782 5781 5780 5778 5775 5773 5770 5768 5766 5764 5762
5778 5780 5782 5783 5784 5784 5784 5785 5785 5785 5786 5786 5787 5787 5787 5787 5787 5787 5786 5786 5785 5785 5785 5784 5783 5783 5782 5781 5779 5778 5777 5776 5774 5773 5771 5770 5767 5765 5762 5760 5757 5755 5753 5751
5770 5771 5772 5773 5774 5774 5774 5774 5775 5776 5776 5777 5777 5776 5776 5777 5777 5776 5776 5775 5775 5775 5774 5774 5773 5772 5772 5771 5770 5768 5767 5766 5764 5762 5761 5759 5757 5755 5752 5750 5747 5744 5742 5740
5762 5762 5763 5764 5764 5764 5764 5764 5765 5766 5766 5767 5766 5766 5766 5766 5766 5766 5766 5765 5765 5765 5765 5764 5763 5763 5762 5761 5760 5758 5757 5755 5754 5752 5750 5749 5747 5745 5743 5740 5737 5735 5732 5730
5753 5753 5754 5754 5754 5754 5755 5755 5756 5756 5757 5757 5757 5757 5756 5756 5757 5757 5756 5756 5756 5756 5755 5754 5754 5753 5752 5751 5749 5748 5746 5745 5743 5741 5739 5738 5737 5735 5732 5730 5728 5725 5723 5720
5744 5745 5745 5746 5745 5745 5746 5746 5747 5747 5748 5748 5748 5748 5747 5747 5747 5747 5747 5747 5747 5747 5746 5745 5743 5743 5742 5740 5738 5737 5736 5734 5733 5731 5729 5728 5726 5724 5722 5720 5718 5716 5713 5711
5736 5737 5737 5737 5737 5737 5737 5737 5738 5738 5738 5739 5739 5740 5739 5739 5739 5739 5739 5738 5737 5737 5736 5735 5733 5732 5732 5730 5728 5726 5725 5724 5723 5721 5719 5717 5715 5714 5712 5710 5708 5706 5704 5702
5728 5728 5728 5728 5728 5728 5728 5729 5729 5729 5730 5730 5731 5731 5731 5731 5731 5731 5730 5730 5728 5728 5727 5726 5725 5723 5722 5720 5719 5717 5716 5715 5714 5712 5710 5708 5706 5704 5703 5701 5699 5697 5695 5692
5719 5720 5720 5720 5720 5720 5720 5720 5721 5721 5721 5722 5722 5722 5723 5723 5723 5723 5722 5721 5720 5719 5718 5716 5715 5714 5713 5711 5710 5708 5707 5706 5704 5703 5701 5699 5698 5696 5694 5691 5689 5687 5685 5683
5711 5712 5712 5712 5712 5713 5713 5713 5713 5713 5713 5714 5714 5714 5714 5714 5714 5714 5714 5713 5711 5710 5709 5707 5706 5704 5703 5702 5700 5699 5698 5696 5695 5693 5692 5690 5688 5686 5684 5682 5680 5678 5675 5673
5704 5704 5704 5705 5705 5705 5705 5705 5705 5706 5706 5706 5706 5706 5706 5706 5706 5705 5704 5704 5703 5701 5700 5698 5696 5695 5694 5692 5691 5689 5688 5687 5686 5684 5683 5681 5679 5677 5675 5673 5670 5668 5665 5663
5697 5697 5697 5697 5698 5698 5698 5698 5698 5698 5698 5698 5698 5697 5697 5697 5697 5697 5696 5696 5695 5693 5691 5690 5688 5686 5685 5683 5682 5681 5679 5678 5677 5675 5674 5672 5670 5668 5665 5663 5661 5658 5656 5653
5690 5690 5690 5690 5690 5690 5691 5691 5691 5691 5691 5691 5690 5689 5689 5689 5689 5689 5688 5688 5686 5685 5684 5682 5680 5678 5677 5675 5674 5672 5671 5670 5668 5666 5664 5663 5661 5658 5656 5654 5652 5649 5647 5644
5684 5684 5684 5683 5683 5683 5684 5684 5684 5684 5683 5683 5682 5682 5682 5682 5681 5680 5680 5679 5678 5677 5675 5674 5672 5671 5669 5667 5666 5664 5663 5661 5659 5657 5656 5654 5652 5650 5647 5645 5643 5640 5638 5635
5678 5678 5678 5678 5677 5677 5677 5677 5677 5676 5676 5676 5676 5675 5675 5674 5674 5673 5672 5671 5670 5669 5667 5666 5665 5663 5661 5659 5658 5656 5654 5652 5651 5649 5647 5645 5643 5641 5638 5636 5633 5631 5628 5626
5671 5672 5672 5672 5671 5671 5671 5671 5670 5670 5670 5670 5669 5669 5668 5667 5666 5665 5664 5663 5662 5661 5659 5658 5656 5654 5652 5650 5649 5647 5645 5644 5642 5640 5638 5636 5634 5632 5629 5627 5624 5622 5619 5617
5666 5666 5665 5665 5665 5665 5665 5664 5664 5664 5663 5663 5662 5661 5660 5659 5658 5657 5656 5655 5654 5652 5650 5649 5647 5646 5644 5642 5640 5638 5636 5635 5634 5632 5630 5628 5626 5623 5620 5618 5616 5613 5610 5608
Wind_Speed
27 26 26 26 25 25 25 25 25 24 24 22 21 21 21 21 20 20 20 20 20 20 20 21 21 21 21 22 21 21 21 22 22 21 21 21 21 21 21 21 21 22 23 24
29 29 28 28 28 28 27 27 27 27 25 24 23 23 23 22 22 21 21 21 21 21 22 22 23 23 23 23 23 22 22 22 22 22 23 23 23 23 23 23 24 24 25 26
30 29 29 30 29 29 29 28 27 27 26 26 25 25 24 24 23 22 22 22 22 23 24 24 24 24 24 24 25 24 24 24 24 24 25 25 25 25 25 26 27 27 28 28
30 31 32 30 29 29 29 28 28 29 28 27 27 26 26 26 26 25 25 25 25 25 25 26 27 26 26 26 26 26 25 26 25 26 26 27 27 27 27 28 28 29 30 30
31 31 32 31 30 30 30 30 28 29 29 28 28 27 28 27 27 27 27 27 27 26 27 27 27 27 27 28 28 28 28 27 28 28 28 28 28 28 29 30 30 31 31 32
32 32 31 29 29 29 29 29 29 29 29 29 28 28 29 28 28 28 28 28 28 27 27 27 28 29 29 30 31 31 30 30 30 30 30 30 30 30 31 32 32 32 33 33
31 31 30 30 29 28 28 29 29 29 29 29 29 29 29 28 28 28 29 29 29 29 29 29 30 30 31 31 32 32 32 32 32 32 32 32 32 33 33 34 34 34 35 35
30 30 30 30 29 29 29 29 30 30 30 29 29 29 29 29 29 29 30 31 31 31 31 30 30 31 31 32 33 32 32 33 33 34 34 34 33 34 34 35 36 36 36 35
29 29 29 29 30 29 30 30 30 31 31 30 30 30 30 30 31 31 30 31 31 31 31 31 31 31 32 32 34 34 34 33 34 34 34 34 34 35 36 37 37 37 37 37
30 29 29 29 29 30 31 31 31 31 32 31 31 31 31 32 31 32 31 32 31 31 30 30 31 32 32 32 33 33 34 34 34 35 35 35 35 36 37 38 39 38 37 37
32 31 31 31 30 30 31 31 32 32 32 32 32 32 32 32 32 32 32 32 32 32 32 32 32 32 32 32 32 32 33 33 34 35 36 36 37 37 38 39 38 38 37 37
30 30 31 31 31 31 31 31 32 33 32 32 33 33 33 33 33 33 33 32 32 32 32 32 32 32 32 32 32 32 32 33 35 35 36 37 37 37 37 37 37 38 37 36
28 28 28 29 31 32 32 31 32 32 32 32 33 34 34 34 34 33 33 32 31 32 32 31 31 30 31 31 32 32 33 34 34 36 36 36 37 37 37 37 37 36 35 35
28 27 27 28 29 30 31 30 31 31 31 31 31 32 33 33 32 31 30 30 30 30 30 30 30 30 30 31 32 33 34 34 35 35 36 36 36 37 37 37 36 35 33 33
27 27 27 27 28 29 29 29 30 30 30 29 29 29 30 30 30 30 29 29 29 29 29 30 30 30 31 31 33 33 33 34 35 36 35 35 36 36 36 35 34 33 32 32
26 26 26 27 28 28 28 28 29 29 29 28 27 27 28 28 28 28 29 28 29 28 29 30 30 30 32 33 34 34 33 33 34 35 35 35 34 34 33 32 32 32 32 32
26 26 27 27 28 28 28 27 27 28 27 26 26 27 27 27 27 26 28 29 29 29 29 29 29 30 31 32 31 31 31 32 32 33 33 33 32 32 32 31 31 31 31 31
26 26 26 27 26 26 26 26 27 27 27 26 27 27 27 27 27 26 26 27 28 29 30 30 30 30 30 30 31 31 31 31 31 31 31 31 30 30 30 31 31 31 31 30
24 24 25 25 24 24 24 24 25 25 26 26 27 27 27 26 27 28 28 28 28 29 29 29 30 29 29 29 30 30 30 30 30 29 29 29 30 30 30 31 31 31 30 29
24 24 24 24 24 24 24 24 24 25 25 26 26 26 26 26 27 27 28 28 28 28 28 28 28 28 29 29 29 29 29 28 28 28 28 28 29 30 30 30 30 30 30 29
23 23 22 22 23 23 24 23 23 24 25 25 25 26 27 27 27 27 27 27 27 27 27 27 27 27 27 27 27 27 27 27 27 28 28 28 29 29 30 30 29 29 28 28
22 22 22 23 23 23 23 23 24 24 24 24 25 26 26 26 26 27 27 27 27 26 26 26 26 26 26 26 25 26 26 27 27 28 28 28 28 28 28 28 28 28 28 28
21 21 22 22 22 22 22 23 23 23 23 24 24 24 24 25 25 26 26 26 26 26 26 26 25 24 25 25 25 25 26 27 27 27 27 27 27 27 27 27 27 28 28 28
20 20 20 21 21 22 22 23 23 23 23 24 23 23 22 23 24 24 24 24 24 24 24 24 24 25 25 25 25 26 26 26 27 26 26 26 26 27 27 27 27 27 27 27
19 20 20 19 20 21 21 22 22 23 23 23 22 22 22 23 23 23 23 23 23 24 24 24 25 25 26 26 26 26 26 26 26 26 26 26 26 26 26 25 26 26 27 27
18 19 20 19 19 19 19 20 21 21 22 22 22 22 23 23 23 23 23 24 24 24 25 25 25 25 26 26 26 26 26 26 26 26 25 25 25 26 25 26 26 27 27 27
17 18 18 18 19 19 19 20 21 21 21 22 23 24 24 23 23 23 24 24 24 24 25 25 25 25 25 25 25 25 25 25 25 25 25 25 26 25 25 25 26 26 26 27
Wind_Direction
243 246 252 254 255 257 257 257 261 266 270 270 270 273 274 275 276 277 277 277 276 278 278 279 281 282 284 284 284 281 283 284 284 283 284 284 284 285 288 289 288 287 288 287
248 249 251 253 254 255 257 260 263 266 268 268 269 270 272 273 274 275 275 275 276 276 277 278 280 281 282 282 283 281 281 281 283 284 284 283 282 282 285 288 288 288 288 287
250 253 255 254 253 255 258 260 263 266 266 266 268 269 270 271 272 272 272 272 274 277 278 280 281 280 280 280 281 283 281 281 282 284 283 282 282 282 285 287 288 288 288 288
251 253 255 256 256 257 259 261 262 264 265 267 268 270 270 270 271 271 272 273 274 276 278 279 280 280 278 278 279 280 280 282 283 284 284 283 284 285 286 288 288 289 289 289
251 255 257 257 258 259 261 261 262 264 266 268 269 271 270 270 269 270 272 274 275 276 276 277 278 280 278 277 277 278 279 279 281 283 283 283 284 285 286 287 287 288 288 289
252 252 253 257 258 260 262 263 263 264 266 268 270 269 269 268 269 270 271 272 273 274 275 276 276 278 278 277 277 276 276 277 279 280 282 283 285 286 286 285 286 286 287 287
251 253 255 257 257 260 261 263 265 266 267 268 268 268 268 268 270 271 272 272 272 274 275 276 276 276 276 277 276 275 275 276 279 281 282 283 284 285 285 286 286 287 286 287
251 254 257 259 259 261 263 264 266 266 267 268 268 268 268 269 270 272 272 272 272 273 274 274 276 276 275 275 274 274 274 276 278 281 282 284 285 285 285 286 287 288 288 288
254 256 259 260 260 262 264 265 265 266 266 267 268 269 270 271 271 271 271 271 272 272 273 273 274 274 275 275 274 273 274 277 280 282 282 282 283 283 284 285 286 287 287 288
254 257 261 262 261 261 264 264 265 265 266 266 268 270 272 272 272 270 270 271 272 272 272 273 273 274 275 275 275 274 274 277 279 280 281 282 283 284 285 285 285 286 287 287
255 258 261 264 264 264 265 264 264 265 267 267 269 270 271 271 271 272 272 272 272 272 273 273 272 274 274 275 275 275 276 277 278 278 280 282 284 285 285 285 287 288 287 285
258 260 262 264 265 265 266 266 265 266 267 268 268 270 270 271 271 272 272 271 271 272 272 273 274 274 275 278 278 279 279 279 279 279 281 282 283 285 286 287 288 287 286 286
259 260 263 265 264 264 265 265 265 267 268 268 268 269 270 272 272 273 274 272 271 272 273 274 275 274 275 278 279 279 279 278 278 279 280 281 282 285 287 289 290 288 287 286
260 263 264 266 265 263 265 266 266 267 268 269 270 269 269 271 272 274 275 274 273 274 275 276 276 277 277 278 279 279 278 278 278 279 278 279 282 284 286 289 290 290 288 287
260 262 263 264 265 265 265 267 267 268 270 270 271 271 269 269 270 272 272 273 274 275 276 276 277 277 277 277 278 279 279 278 279 279 278 279 280 283 285 287 289 288 288 289
258 261 262 264 265 264 264 265 265 266 267 268 269 272 271 269 271 273 273 273 274 276 277 277 276 276 277 278 278 278 278 279 280 281 281 282 281 282 284 286 287 287 287 288
258 261 263 265 265 264 264 263 265 265 265 265 267 270 271 271 272 276 275 275 275 276 278 280 280 279 278 278 279 279 279 280 281 282 281 281 282 283 283 285 286 287 287 288
258 261 263 264 263 264 264 264 265 265 265 266 268 268 270 270 270 275 278 280 279 278 280 281 281 283 281 280 279 279 279 280 282 282 282 284 286 287 286 287 287 289 289 290
259 262 264 264 265 265 264 263 264 265 266 266 267 269 271 271 271 273 277 279 282 283 284 284 283 283 283 282 281 280 280 281 282 282 283 284 286 287 288 289 289 289 290 291
258 260 261 262 262 264 264 264 266 268 268 270 271 271 272 271 272 274 277 279 281 283 284 283 282 282 282 281 280 279 280 280 281 282 283 284 286 286 288 289 290 291 290 290
257 259 259 260 262 264 264 264 266 268 270 271 272 271 271 271 273 275 278 280 282 284 285 284 283 282 281 280 280 280 280 281 283 284 285 286 287 287 288 289 290 291 290 290
257 261 261 260 262 264 265 266 268 269 270 271 273 274 272 272 273 275 277 279 282 283 284 285 285 283 282 283 284 283 283 283 284 285 286 287 288 289 289 290 290 289 290 293
258 261 262 261 261 262 264 265 266 268 271 272 274 274 273 274 275 277 279 281 282 283 284 286 287 288 288 287 286 285 284 284 284 285 286 287 288 288 289 290 291 291 292 294
260 261 261 261 261 262 264 266 266 268 272 274 274 274 274 275 277 279 281 282 282 284 285 286 288 289 288 287 286 285 285 285 285 285 286 288 288 288 289 289 290 292 294 294
261 260 260 260 262 264 265 266 268 270 272 274 275 275 276 279 281 281 281 281 282 284 285 286 288 289 288 287 287 287 286 287 286 287 288 290 291 292 291 289 289 291 292 293
260 260 260 261 262 262 263 265 268 271 272 273 274 276 278 280 281 281 281 281 282 285 285 286 287 288 288 288 288 288 286 286 287 287 288 289 292 292 292 292 292 291 291 294
262 262 261 260 261 262 264 266 268 270 271 272 275 277 279 280 280 281 282 284 284 286 286 286 287 288 288 289 289 288 286 285 285 286 287 289 291 292 293 293 294 294 295 297